Regional Weather Roundup
Issued by NWS

Home | Current Version | Previous Version | Text Only | Print | Product List | Glossary On
Versions: 1 2 3 4 5 6 7 8 9 10 11 12 13 14 15 16 17 18 19 20 21 22 23 24 25 26 27 28 29 30 31 32 33 34 35 36 37 38 39 40 41 42 43 44 45 46 47 48 49 50
841
ASUS43 KTOP 231408
RWRKS

WEATHER ROUNDUP FOR KANSAS
NATIONAL WEATHER SERVICE GOODLAND KS
900 AM CDT SAT SEP 23 2017

NOTE:  "FAIR" INDICATES FEW OR NO CLOUDS BELOW 12,000 FEET WITH NO
SIGNIFICANT WEATHER AND/OR OBSTRUCTIONS TO VISIBILITY.

KSZ001>006-013>018-027>032-041>047-231500-
NORTHWEST KANSAS

CITY           SKY/WX    TMP DP  RH WIND       PRES   REMARKS
GOODLAND       CLOUDY    56  50  80 NW10      29.91R
HAYS           SUNNY     75  65  70 S16       29.91S
HILL CITY      SUNNY     75  66  73 S9        29.89R
RUSSELL        MOSUNNY   75  64  68 S18       29.90S
$$

KSZ061>065-074>080-084>089-231500-
SOUTHWEST KANSAS

CITY           SKY/WX    TMP DP  RH WIND       PRES   REMARKS
DODGE CITY     SUNNY     73  64  73 S15       29.93R
ELKHART          N/A     65  63  94 S18         N/A
GARDEN CITY    SUNNY     70  64  81 SE16G24   29.90S
GREAT BEND     MOSUNNY   74  65  73 S16       29.94R
LIBERAL        SUNNY     71  65  81 S16       29.92S
PRATT          MOSUNNY   72  63  72 S13       29.95S
$$

KSZ066>073-081>083-090>101-231500-
SOUTHEAST KANSAS

CITY           SKY/WX    TMP DP  RH WIND       PRES   REMARKS
CHANUTE        SUNNY     74  68  81 SE9       30.02S
COFFEYVILLE    SUNNY     74  69  85 SE6       30.02R
HUTCHINSON     SUNNY     75  66  73 S12       29.96R
MEDICINE LODGE   N/A     73  64  73 SE9       29.94S
NEWTON         SUNNY     73  65  75 S13       29.99R
PARSONS        SUNNY     75  68  78 SE7       30.03R
WICHITA INTL   MOSUNNY   74  67  78 S10       29.97R
WICHITA JABRA  SUNNY     74  67  78 S9        29.98R
WICHITA MCCONL SUNNY     74  64  70 S10       29.98R
WINFIELD       SUNNY     74  67  78 S9        30.00R
$$

KSZ007>012-019>026-033>040-048>060-102>105-231500-
NORTHEAST KANSAS

CITY           SKY/WX    TMP DP  RH WIND       PRES   REMARKS
CONCORDIA      MOSUNNY   75  66  73 S15G23    29.93R
EMPORIA        SUNNY     72  66  81 S12       30.00R
LAWRENCE       SUNNY     74  69  85 SE7       30.01R
MANHATTAN      MOSUNNY   78  66  66 S9        29.96R
MARYSVILLE     SUNNY     75  66  73 S10       29.97R
OLATHE IND     SUNNY     74  68  81 S9        30.03R
OLATHE EXE     SUNNY     73  70  90 S5        30.03R
SALINA         SUNNY     79  64  60 S13       29.94S
TOPEKA BILLARD SUNNY     75  69  81 SE3       30.00R
TOPEKA FORBES  SUNNY     77  68  73 S8        30.00S
$$




USA.gov is the U.S. government's official web portal to all federal, state and local government web resources and services.